Monroe, MI

3:15 PM EST on February 13, 2016 (GMT -0500)
Custer

Weather History for KTTF - June, 2013

Change the Weather History Date:

Thursday, June 6, 2013

  Actual Average Record
Temperature  
Mean Temperature 64 °F -  
Max Temperature 71 °F 77 °F 93 °F (2008)
Min Temperature 57 °F 56 °F 35 °F (1998)
Degree Days  
Heating Degree Days 1    
Growing Degree Days 14 (Base 50)    
Moisture  
Dew Point 50 °F    
Average Humidity 63    
Maximum Humidity 72    
Minimum Humidity 53    
Precipitation  
Precipitation 0.00 in - - ()
Sea Level Pressure  
Sea Level Pressure 29.89 in    
Wind  
Wind Speed 5 mph (NE)    
Max Wind Speed 10 mph    
Max Gust Speed 16 mph    
Visibility 10 miles    
Events      
Averages and records for this station are not official NWS values.
T = Trace of Precipitation, MM = Missing Value Source: NWS Daily Summary

Daily Weather History Graph

Daily Weather History Graph

Search for Another Location

Airport or City:

Trip Planner

Search our weather history database for the weather conditions in past years. The results will help you decide how hot, cold, wet, or windy it might be!

Date:

Astronomy

Jun. 06, 2013 Rise Set
Actual Time 5:58 AM EDT 9:06 PM EDT
Civil Twilight 5:24 AM EDT 9:40 PM EDT
Nautical Twilight 4:41 AM EDT 10:23 PM EDT
Astronomical Twilight 3:49 AM EDT 11:15 PM EDT
Moon 4:41 AM EDT (6/6) 7:25 PM EDT (6/6)
Length of Visible Light 16h 15m
Length of Day
15h 07m
Waning Crescent, 4% of the Moon is Illuminated
Jun 6
Waning Crescent
Jun 8
New
Jun 16
First Quarter
Jun 23
Full
Jun 30
Last Quarter

Hourly Weather History & Observations

Time (EDT) Temp. Dew Point Humidity Pressure Visibility Wind Dir Wind Speed Gust Speed Precip Events Conditions
12:13 AM 60.8 °F 46.4 °F 59% 29.99 in 10.0 mi Calm Calm - N/A   Clear
12:33 AM 59.0 °F 46.4 °F 63% 29.98 in 10.0 mi Calm Calm - N/A   Clear
12:53 AM 57.2 °F 48.2 °F 72% 29.98 in 10.0 mi NE 3.5 mph - N/A   Clear
1:13 AM 59.0 °F 48.2 °F 67% 29.97 in 10.0 mi NNE 3.5 mph - N/A   Clear
1:33 AM 60.8 °F 50.0 °F 68% 29.96 in 10.0 mi NE 3.5 mph - N/A   Clear
1:53 AM 59.0 °F 48.2 °F 67% 29.95 in 10.0 mi ENE 4.6 mph - N/A   Clear
2:14 AM 60.8 °F 48.2 °F 63% 29.95 in 10.0 mi NE 4.6 mph - N/A   Clear
2:34 AM 59.0 °F 48.2 °F 67% 29.95 in 10.0 mi NE 4.6 mph - N/A   Clear
2:54 AM 59.0 °F 46.4 °F 63% 29.94 in 10.0 mi NE 4.6 mph - N/A   Clear
3:14 AM 59.0 °F 46.4 °F 63% 29.94 in 10.0 mi NE 6.9 mph - N/A   Clear
3:34 AM 59.0 °F 44.6 °F 59% 29.93 in 10.0 mi ENE 6.9 mph - N/A   Clear
3:54 AM 59.0 °F 44.6 °F 59% 29.92 in 10.0 mi NE 4.6 mph - N/A   Clear
4:14 AM 59.0 °F 46.4 °F 63% 29.93 in 10.0 mi NNE 4.6 mph - N/A   Clear
4:34 AM 57.2 °F 46.4 °F 67% 29.92 in 10.0 mi NNE 3.5 mph - N/A   Clear
4:54 AM 57.2 °F 44.6 °F 63% 29.91 in 10.0 mi NE 5.8 mph - N/A   Clear
5:14 AM 57.2 °F 44.6 °F 63% 29.90 in 10.0 mi NE 5.8 mph - N/A   Clear
5:35 AM 57.2 °F 44.6 °F 63% 29.90 in 10.0 mi NE 5.8 mph - N/A   Clear
5:55 AM 57.2 °F 42.8 °F 59% 29.90 in 10.0 mi NNE 4.6 mph - N/A   Clear
6:15 AM 57.2 °F 42.8 °F 59% 29.90 in 10.0 mi NE 5.8 mph - N/A   Clear
6:35 AM 57.2 °F 44.6 °F 63% 29.91 in 10.0 mi NNE 3.5 mph - N/A   Clear
6:55 AM 57.2 °F 44.6 °F 63% 29.91 in 10.0 mi North 4.6 mph - N/A   Clear
7:15 AM 57.2 °F 44.6 °F 63% 29.90 in 10.0 mi NNE 5.8 mph - N/A   Clear
7:35 AM 57.2 °F 44.6 °F 63% 29.88 in 10.0 mi NNE 6.9 mph - N/A   Clear
7:55 AM 57.2 °F 44.6 °F 63% 29.88 in 10.0 mi NE 5.8 mph - N/A   Clear
8:15 AM 57.2 °F 46.4 °F 67% 29.88 in 10.0 mi NNE 5.8 mph - N/A   Clear
8:36 AM 59.0 °F 46.4 °F 63% 29.87 in 10.0 mi NE 5.8 mph - N/A   Clear
8:56 AM 60.8 °F 46.4 °F 59% 29.88 in 10.0 mi NE 6.9 mph - N/A   Clear
9:16 AM 60.8 °F 46.4 °F 59% 29.87 in 10.0 mi ENE 10.4 mph - N/A   Clear
9:36 AM 60.8 °F 48.2 °F 63% 29.87 in 10.0 mi NE 8.1 mph - N/A   Clear
9:56 AM 60.8 °F 48.2 °F 63% 29.87 in 10.0 mi ENE 8.1 mph - N/A   Clear
10:16 AM 60.8 °F 48.2 °F 63% 29.88 in 10.0 mi ENE 6.9 mph - N/A   Clear
10:31 AM 62.6 °F 48.2 °F 59% 29.88 in 10.0 mi ENE 8.1 mph - N/A   Clear
10:51 AM 60.8 °F 48.2 °F 63% 29.88 in 10.0 mi ENE 6.9 mph - N/A   Clear
11:12 AM 62.6 °F 48.2 °F 59% 29.89 in 10.0 mi North 3.5 mph - N/A   Clear
11:32 AM 60.8 °F 48.2 °F 63% 29.90 in 10.0 mi North 5.8 mph - N/A   Clear
11:52 AM 60.8 °F 48.2 °F 63% 29.90 in 10.0 mi NNE 5.8 mph - N/A   Clear
12:12 PM 60.8 °F 50.0 °F 68% 29.88 in 10.0 mi NE 8.1 mph - N/A   Clear
12:32 PM 62.6 °F 51.8 °F 68% 29.87 in 10.0 mi NE 5.8 mph - N/A   Clear
12:52 PM 62.6 °F 51.8 °F 68% 29.87 in 10.0 mi NNE 4.6 mph - N/A   Clear
1:12 PM 62.6 °F 50.0 °F 63% 29.87 in 10.0 mi NE 5.8 mph - N/A   Clear
1:32 PM 64.4 °F 51.8 °F 64% 29.87 in 10.0 mi NE 6.9 mph - N/A   Clear
1:52 PM 64.4 °F 51.8 °F 64% 29.86 in 10.0 mi NNE 5.8 mph - N/A   Clear
2:13 PM 66.2 °F 51.8 °F 60% 29.87 in 10.0 mi NNE 4.6 mph - N/A   Clear
2:33 PM 66.2 °F 53.6 °F 64% 29.86 in 10.0 mi NNE 6.9 mph - N/A   Clear
2:53 PM 68.0 °F 53.6 °F 60% 29.85 in 10.0 mi NNE 6.9 mph - N/A   Clear
3:13 PM 69.8 °F 53.6 °F 56% 29.85 in 10.0 mi ENE 8.1 mph - N/A   Clear
3:33 PM 69.8 °F 53.6 °F 56% 29.84 in 10.0 mi NNE 4.6 mph - N/A   Clear
3:53 PM 69.8 °F 53.6 °F 56% 29.84 in 10.0 mi NNE 6.9 mph - N/A   Clear
4:13 PM 69.8 °F 53.6 °F 56% 29.84 in 10.0 mi NE 10.4 mph - N/A   Clear
4:33 PM 71.6 °F 53.6 °F 53% 29.84 in 10.0 mi North 10.4 mph 16.1 mph N/A   Clear
4:53 PM 69.8 °F 53.6 °F 56% 29.84 in 10.0 mi ENE 5.8 mph - N/A   Clear
5:13 PM 71.6 °F 53.6 °F 53% 29.84 in 10.0 mi NE 8.1 mph - N/A   Clear
5:34 PM 71.6 °F 53.6 °F 53% 29.84 in 10.0 mi NNE 9.2 mph 16.1 mph N/A   Scattered Clouds
5:54 PM 71.6 °F 53.6 °F 53% 29.84 in 10.0 mi NE 6.9 mph - N/A   Mostly Cloudy
6:14 PM 69.8 °F 55.4 °F 60% 29.84 in 10.0 mi East 8.1 mph - N/A   Overcast
6:34 PM 68.0 °F 55.4 °F 64% 29.85 in 10.0 mi ENE 10.4 mph - N/A   Overcast
6:54 PM 68.0 °F 55.4 °F 64% 29.84 in 10.0 mi ENE 6.9 mph - N/A   Overcast
7:14 PM 66.2 °F 53.6 °F 64% 29.85 in 10.0 mi ENE 6.9 mph - N/A   Mostly Cloudy
7:34 PM 64.4 °F 53.6 °F 68% 29.85 in 10.0 mi East 9.2 mph - N/A   Mostly Cloudy
7:54 PM 64.4 °F 53.6 °F 68% 29.86 in 10.0 mi East 8.1 mph - N/A   Overcast
8:15 PM 64.4 °F 53.6 °F 68% 29.86 in 10.0 mi East 6.9 mph - N/A   Overcast
8:35 PM 64.4 °F 53.6 °F 68% 29.86 in 10.0 mi ENE 5.8 mph - N/A   Overcast
8:55 PM 62.6 °F 53.6 °F 72% 29.87 in 10.0 mi East 3.5 mph - N/A   Overcast
9:15 PM 64.4 °F 51.8 °F 64% 29.88 in 10.0 mi NE 5.8 mph - N/A   Overcast
9:35 PM 62.6 °F 51.8 °F 68% 29.88 in 10.0 mi NE 6.9 mph - N/A   Overcast
9:55 PM 62.6 °F 51.8 °F 68% 29.88 in 10.0 mi NE 4.6 mph - N/A   Overcast
10:15 PM 62.6 °F 51.8 °F 68% 29.88 in 10.0 mi NE 6.9 mph - N/A   Overcast
10:35 PM 62.6 °F 51.8 °F 68% 29.88 in 10.0 mi NE 4.6 mph - N/A   Overcast
10:56 PM 62.6 °F 51.8 °F 68% 29.89 in 10.0 mi NE 4.6 mph - N/A   Overcast
11:16 PM 62.6 °F 51.8 °F 68% 29.88 in 10.0 mi NNE 5.8 mph - N/A   Overcast
11:36 PM 62.6 °F 51.8 °F 68% 29.88 in 10.0 mi NNE 4.6 mph - N/A   Overcast
11:56 PM 60.8 °F 51.8 °F 72% 29.88 in 10.0 mi NE 4.6 mph - N/A   Overcast